Location: Dalton Gardens
(47.7327°N, 116.7697°W)
Time: 01:02:19
(UTC+00:00)

BlueWalker 3 - Pass Details

Date: 03 December 2022
Orbit: 499 x 517 km, 53.2° (Epoch: 26 January)

Event Time Altitude Azimuth Distance (km) Brightness Sun altitude
Rises 03:00:40 0° 296° (WNW) 2,628 6.5 -30.1°
Reaches altitude 10° 03:02:55 10° 301° (WNW) 1,736 5.3 -30.5°
Enters shadow 03:04:02 18° 306° (NW) 1,309 4.5 -30.7°
